Location: Oak Glen
(34.0495°N, 116.9470°E)
Time: 08:08:23
(UTC-08:00)

OTV 5 (USA 277) - Pass Details

Date: 11 October 2017
Orbit: 404 x 417 km, 43.0° (Epoch: 07 September)

Event Time Altitude Azimuth Distance (km) Brightness Sun altitude
Rises 03:30:06 0° 249° (WSW) 2,341 ? -10.5°
Reaches altitude 10° 03:32:13 10° 254° (WSW) 1,481 ? -10.9°
Maximum altitude 03:35:31 57° 334° (NNW) 494 ? -11.6°
Enters shadow 03:38:12 15° 51° (NE) 1,236 ? -12.1°
